EHI
0 0 0 0 0 0 0 0 0 0 0 0 0 0 0 0 0 0 0 0 0 0 0 0 0 0 0 0 0 0 0 0 0 0 0 0 0 0 0 0 0 0 0
0 0 0 0 0 0 0 0 0 0 0 0 0 0 0 0 0 0 0 0 0 0 0 0 0 0 0 0 0 0 0 0 0 0 0 0 0 0 0 0 0 0 0
0 0 0 0 0 0 0 0 0 0 0 0 0 0 0 0 0 0 0 0 0 0 0 0 0 0 0 0 0 0 0 0 0 0 0 0 0 0 0 0 0 0 0
0 0 0 0 0 0 0 0 0 0 0 0 0 0 0 0 0 0 0 0 0 0 0 0 0 0 0 0 0 0 0 0 0 0 0 0 0 0 0 0 0 0 0
0 0 0 0 0 0 0 0 0 0 0 0 0 0 0 0 0 0 0 0 0 0 0 0 0 0 0 0 0 0 0 0 0 0 0 0 0 0 0 0 0 0 0
0 0 0 0 0 0 0 0 0 0 0 0 0 0 0 0 0 0 0 0 0 0 0 0 0 0 0 0 0 0 0 0 0 0 0 0 0 0 0 0 0 0 0
0 0 0 0 0 0 0 0 0 0 0 0 0 0 0 0 0 0 0 0 0 0 0 0 0 0 0 0 0 0 0 0 0 0 0 0 0 0 0 0 0 0 0
0 0 0 0 0 0 0 0 0 0 0 0 0 0 0 0 0 0 0 0 0 0 0 0 0 0 0 0 0 0 0 0 0 0 0 0 0 0 0 0 0 0 0
0 0 0 0 0 0 0 0 0 0 0 0 0 0 0 0 0 0 0 0 0 0 0 0 0 0 0 0 0 0 0 0 0 0 0 0 0 0 0 0 0 0 0
0 0 0 0 0 0 0 0 0 0 0 0 0 0 0 0 0 0 0 0 0 0 0 0 0 0 0 0 0 0 0 0 0 0 0 0 0 0 0 0 0 0 0
0 0 0 0 0 0 0 0 0 0 0 0 0 0 0 0 0 0 0 0 0 0 0 0 0 0 0 0 0 0 0 0 0 0 0 0 0 0 0 0 0 0 0
0 0 0 0 0 0 0 0 0 0 0 0 0 0 0 0 0 0 0 0 0 0 0 0 0 0 0 0 0 0 0 0 0 0 0 0 0 0 0 0 0 0 0
0 0 0 0 0 0 0 0 0 0 0 0 0 0 0 0 0 0 0 0 0 0 0 0 0 0 0 0 0 0 0 0 0 0 0 0 0 0 0 0 0 0 0
0 0 0 0 0 0 0 0 0 0 0 0 0 0 0 0 0 0 0 0 0 0 0 0 0 0 0 0 0 0 0 0 0 0 0 0 0 0 0 0 0 0 0
0 0 0 0 0 0 0 0 0 0 0 0 0 0 0 0 0 0 0 0 0 0 0 0 0 0 0 0 0 0 0 0 0 0 0 0 0 0 0 0 0 0 0
0 0 0 0 0 0 0 0 0 0 0 0 0 0 0 0 0 0 0 0 0 0 0 0 0 0 0 0 0 0 0 0 0 0 0 0 0 0 0 0 0 0 0
0 0 0 0 0 0 0 0 0 0 0 0 0 0 0 0 0 0 0 0 0 0 0 0 0 0 0 0 0 0 0 0 0 0 0 0 0 0 0 0 0 0 0
0 0 0 0 0 0 0 0 0 0 0 0 0 0 0 0 0 0 0 0 0 0 0 0 0 0 0 0 0 0 0 0 0 0 0 0 0 0 0 0 0 0 0
0 0 0 0 0 0 0 0 0 0 0 0 0 0 0 0 0 0 0 0 0 0 0 0 0 0 0 0 0 0 0 0 0 0 0 0 0 0 0 0 0 0 0
0 0 0 0 0 0 0 0 0 0 0 0 0 0 0 0 0 0 0 0 0 0 0 0 0 0 0 0 0 0 0 0 0 0 0 0 0 0 0 0 0 0 0
0 0 0 0 0 0 0 0 0 0 0 0 0 0 0 0 0 0 0 0 0 0 0 0 0 0 0 0 0 0 0 0 0 0 0 0 0 0 0 0 0 0 0
0 0 0 0 0 0 0 0 0 0 0 0 0 0 0 0 0 0 0 0 0 0 0 0 0 0 0 0 0 0 0 0 0 0 0 0 0 0 0 0 0 0 0
0 0 0 0 0 0 0 0 0 0 0 0 0 0 0 0 0 0 0 0 0 0 0 0 0 0 0 0 0 0 0 0 0 0 0 0 0 0 0 0 0 0 0
0 0 0 0 0 0 0 0 0 0 0 0 0 0 0 0 0 0 0 0 0 0 0 0 0 0 0 0 0 0 0 0 0 0 0 0 0 0 0 0 0 0 0
0 0 0 0 0 0 0 0 0 0 0 0 0 0 0 0 0 0 0 0 0 0 0 0 0 0 0 0 0 0 0 0 0 0 0 0 0 0 0 0 0 0 0
0 0 0 0 0 0 0 0 0 0 0 0 0 0 0 0 0 0 0 0 0 0 0 0 0 0 0 0 0 0 0 0 0 0 0 0 0 0 0 0 0 0 0
Wind_Speed
1 1 2 2 3 3 3 4 4 5 6 6 6 8 8 9 10 9 9 24 30 31 31 31 32 32 32 33 33 33 33 32 31 30 29 28 28 26 25 24 22 20 19
2 1 2 2 3 3 3 4 5 5 5 5 6 7 8 9 8 10 9 15 26 29 31 32 32 32 33 33 34 34 34 33 32 31 30 29 28 27 26 25 23 21 20
3 3 2 3 3 3 4 4 5 4 5 6 7 7 8 8 9 10 12 10 12 22 29 31 32 33 33 34 34 34 34 34 33 32 31 30 29 28 27 25 24 22 21
4 3 3 4 4 3 3 4 3 3 5 5 6 6 7 7 9 11 11 11 10 11 18 29 32 33 33 34 35 35 34 34 33 32 31 31 29 28 27 26 25 23 21
5 4 3 4 4 3 3 5 4 4 5 6 7 6 6 8 9 12 11 12 12 12 11 20 30 32 33 34 34 34 34 34 33 32 31 30 30 29 28 27 25 24 23
5 4 4 5 4 3 3 4 5 4 5 6 9 9 7 9 8 8 10 10 11 14 13 15 14 18 29 32 33 32 33 33 33 32 31 30 29 29 28 27 25 24 23
5 4 4 4 3 3 4 5 4 5 4 4 5 8 8 8 8 7 7 9 12 13 12 14 12 12 13 26 29 30 31 31 31 31 30 29 29 28 27 27 26 24 23
5 4 4 4 4 3 5 5 4 3 4 4 4 9 9 8 6 9 7 9 10 9 12 15 14 14 13 11 18 29 29 29 29 28 28 28 28 27 27 27 26 25 23
5 5 5 4 4 4 4 5 5 5 5 4 3 4 7 10 12 9 10 9 8 9 10 11 14 15 15 12 12 20 26 27 27 27 26 25 26 26 26 26 26 25 24
5 5 5 5 5 4 5 6 6 4 5 6 5 4 6 8 9 12 10 7 10 11 11 12 13 13 14 11 14 22 25 25 25 25 25 24 24 25 25 25 25 25 24
5 5 5 5 5 5 6 6 6 6 5 6 6 5 7 7 7 9 14 15 12 9 9 11 11 11 12 11 10 17 24 23 23 24 23 24 23 23 23 23 22 23 24
4 5 5 5 5 5 6 7 7 7 7 7 7 6 6 7 7 7 11 14 15 13 11 10 10 10 10 10 14 23 24 23 22 22 22 22 22 22 22 21 21 21 21
4 6 6 5 5 6 7 7 7 7 7 7 8 7 7 8 8 8 10 13 15 14 12 9 8 8 10 9 11 23 22 23 23 22 21 21 21 21 21 21 21 21 20
5 6 6 6 7 7 8 6 6 8 7 8 10 9 8 9 8 8 8 10 14 14 12 10 7 7 8 9 14 23 14 23 24 23 21 20 20 20 21 21 21 21 20
5 7 7 7 7 7 7 7 7 8 8 9 9 10 9 9 9 8 8 8 10 15 16 12 9 8 8 9 16 13 11 20 24 23 22 21 20 20 21 22 21 21 20
7 6 7 7 7 7 8 7 8 9 9 10 9 10 11 10 9 9 9 8 9 12 15 12 12 10 11 12 18 13 13 24 22 22 21 21 20 20 21 21 22 21 21
7 7 7 7 7 8 8 8 10 10 11 12 11 12 15 14 11 10 9 9 10 10 14 14 11 10 11 11 12 10 11 11 11 20 21 21 21 21 21 22 22 22 22
7 7 7 7 8 8 8 9 11 12 11 13 14 14 16 13 14 11 9 11 10 11 12 16 13 10 11 11 11 11 11 11 9 18 22 22 22 22 23 23 23 23 22
6 6 6 7 8 9 9 10 11 12 13 14 15 15 15 14 14 11 11 11 11 11 11 13 14 10 9 9 10 10 11 9 11 14 18 20 21 22 23 23 23 23 22
6 6 7 8 9 9 10 11 11 12 13 13 13 12 12 12 13 13 11 12 12 12 11 10 11 10 9 8 7 9 10 7 9 10 13 15 17 20 22 23 23 23 22
7 6 7 8 9 8 8 10 11 12 11 10 9 9 10 14 17 14 11 9 9 9 9 9 10 10 9 7 7 7 10 10 9 8 7 7 8 8 10 16 20 21 20
6 6 7 8 9 8 15 21 16 8 7 7 8 8 10 12 16 20 23 21 18 11 9 9 10 10 10 9 8 9 9 10 8 3 4 8 7 8 8 8 16 20 19
6 7 7 8 9 11 18 19 20 9 5 6 8 8 9 10 16 10 18 21 17 20 19 12 11 11 11 10 10 12 10 10 10 6 7 10 6 8 8 10 19 20 19
6 6 7 8 8 10 16 17 18 6 5 7 7 8 9 10 13 16 11 7 8 10 14 10 9 11 11 11 11 12 11 10 10 8 7 8 5 6 8 7 16 19 19
7 6 6 7 7 9 14 16 16 4 5 7 7 8 10 10 20 23 9 7 9 9 13 16 19 18 20 19 14 8 6 7 8 6 5 6 5 5 6 7 11 18 19
7 6 6 6 6 7 12 14 14 4 5 6 6 7 14 17 21 19 8 7 10 9 7 9 12 14 12 13 16 8 6 7 7 6 4 4 4 4 5 4 5 7 10
Wind_Direction
55 355 322 313 305 298 296 297 298 299 303 304 306 316 312 310 308 306 311 314 316 315 313 312 309 306 303 300 296 292 288 284 280 276 274 273 272 271 272 273 273 273 262
182 229 273 283 282 278 277 281 288 293 293 291 296 302 301 299 299 299 302 309 310 311 311 309 307 305 302 298 295 290 286 282 278 274 271 269 268 267 267 268 268 268 265
197 210 237 261 268 273 283 286 290 292 302 308 304 300 299 295 296 296 300 297 299 305 306 307 306 303 300 296 293 289 284 280 276 272 267 265 264 263 262 263 264 264 263
205 208 229 252 263 272 279 287 283 298 300 300 297 296 299 296 294 295 294 292 292 293 299 302 302 300 298 296 293 286 282 278 274 270 264 261 260 259 258 259 260 260 260
216 213 231 249 262 269 276 297 314 295 299 303 300 296 297 297 294 294 291 291 288 289 289 297 300 300 298 294 290 285 280 276 272 268 263 258 256 255 255 256 257 257 256
225 223 237 251 260 269 277 280 288 288 284 293 306 308 295 293 289 284 285 291 290 290 291 291 292 294 294 294 291 286 280 275 270 266 261 256 253 252 251 252 254 256 256
229 231 251 260 261 261 269 280 284 291 287 288 301 308 297 280 282 283 281 285 288 290 289 292 289 286 288 290 293 291 285 278 271 266 260 255 251 249 249 250 252 254 256
234 243 241 250 258 264 276 283 284 281 285 306 302 314 311 305 292 306 288 288 290 292 295 295 290 287 286 282 282 288 288 282 276 271 263 256 251 247 247 247 249 252 254
242 246 250 249 254 247 260 271 273 268 284 288 252 270 301 305 313 299 300 296 293 296 295 295 292 293 292 289 286 288 287 284 279 276 269 261 254 249 246 245 247 251 253
245 245 250 251 252 248 254 266 280 262 272 290 285 244 251 277 297 305 305 297 298 300 300 299 298 296 295 293 291 292 292 287 280 275 270 265 259 252 247 245 246 249 252
245 248 250 250 249 247 253 261 269 263 254 264 277 279 279 276 266 286 301 307 305 298 297 298 294 294 296 294 292 294 296 292 286 281 275 269 264 260 255 249 248 249 250
246 250 251 245 245 247 254 259 257 256 254 258 266 268 272 275 282 283 291 300 302 304 300 296 294 296 296 298 300 305 305 301 294 288 281 273 268 266 264 260 257 255 253
237 246 250 246 247 247 254 256 254 254 253 256 259 265 265 263 268 274 283 293 296 299 296 291 289 296 300 304 304 307 308 306 301 293 287 279 271 269 268 268 265 263 260
233 241 242 243 246 251 261 256 256 258 259 255 266 266 267 268 263 262 269 285 295 297 296 292 292 287 296 300 300 308 308 307 301 296 292 286 277 270 269 268 268 269 269
238 240 239 243 249 252 255 257 257 259 261 261 263 265 265 267 263 259 259 262 278 294 298 300 297 290 294 297 300 303 303 302 300 298 293 287 280 272 266 264 265 267 271
239 246 247 248 253 255 256 256 259 262 262 265 265 265 267 267 264 262 259 259 260 273 285 291 293 293 294 300 302 307 303 302 302 297 291 284 278 272 266 262 261 263 265
235 241 246 251 255 258 258 259 263 266 266 270 271 269 270 270 268 264 261 261 263 266 277 286 286 288 288 291 296 294 293 292 291 294 289 283 277 272 267 262 259 258 259
234 239 247 254 260 264 261 261 269 275 271 273 275 275 275 275 269 265 261 261 264 265 270 282 288 288 286 287 288 291 296 296 293 290 286 281 275 270 265 260 256 253 253
235 242 249 256 263 266 268 267 268 271 271 272 275 277 277 275 272 265 260 261 264 269 268 276 286 288 284 284 288 291 289 285 287 287 287 280 273 268 265 258 255 250 247
236 247 252 258 264 268 270 272 271 270 272 273 274 275 276 274 271 266 262 261 263 269 271 276 284 287 285 280 280 292 296 288 287 289 282 278 272 268 264 259 253 251 245
241 247 258 265 268 271 269 266 264 266 272 277 277 276 279 287 287 282 277 268 264 269 275 281 284 287 288 290 288 288 291 293 287 272 275 277 278 271 266 262 256 252 244
241 250 257 264 271 275 288 295 296 284 284 283 285 286 289 293 294 298 300 296 293 292 291 283 287 284 285 283 283 281 283 287 289 279 304 293 280 269 259 249 249 248 243
240 250 257 261 267 277 292 299 304 308 288 283 284 290 299 299 305 289 287 291 294 295 297 293 285 283 284 280 276 275 270 267 266 272 292 285 262 261 255 249 247 244 242
236 247 256 262 267 278 297 304 308 313 286 278 279 282 285 286 290 292 284 273 263 273 283 284 272 274 274 271 264 265 267 269 268 260 246 266 267 260 258 249 249 243 239
235 242 251 257 264 280 299 304 312 290 285 281 280 284 295 289 298 315 325 300 293 287 297 301 304 304 304 306 302 291 279 275 281 273 226 243 266 271 259 244 240 238 234
233 242 251 252 261 271 294 306 313 287 289 287 286 289 308 312 318 332 331 308 304 301 300 303 305 304 300 296 300 293 278 272 274 277 242 253 271 284 279 244 220 222 224